Torna al catalogo

STARLINK-30408

AttivoComunicazioniVLEO
NORAD 57824·PAYLOAD·🇺🇸 United States

Lanciato Sep 9, 2023 da Cape Canaveral Space Force Station

Loading…

Prossimi Passaggi (prossime 24 ore)

TLE

AggiornatoSource: CelesTrak SupGP

Epoca: Sep 15, 2026, 02:31 UTC

1 57824C 23138S   26258.10534722 -.00018518  00000+0 -67079-3 0  2584
2 57824  42.9996 244.2375 0001176 261.4818 313.1691 15.27585110    19

Traccia STARLINK-30408 in tempo reale con AllMySat

Download on the App Store